Regional Weather Roundup
Issued by NWS Mobile, AL

Home | Current Version | Previous Version | Text Only | Print | Product List | Glossary On
Versions: 1 2 3 4 5 6 7 8 9 10 11 12 13 14 15 16 17 18 19 20 21 22 23 24 25 26 27 28 29 30 31 32 33 34 35 36 37 38 39 40 41 42 43 44 45 46 47 48 49 50
000
ASUS44 KMOB 231212
RWRMOB
REGIONAL WEATHER ROUNDUP
NATIONAL WEATHER SERVICE MOBILE AL
700 AM CDT TUE MAY 23 2017

NOTE: "FAIR" INDICATES FEW OR NO CLOUDS BELOW 12,000 FEET WITH NO
      SIGNIFICANT WEATHER AND/OR OBSTRUCTIONS TO VISIBILITY.

  * THESE STATIONS ARE PART OF THE UNIVERSITY OF SOUTH ALABAMA
    MESONET AND ARE NOT UNDER NWS OR FAA QUALITY CONTROL.

ALZ061>064-231300-
COASTAL ALABAMA

CITY           SKY/WX    TMP DP  RH WIND       PRES   REMARKS
MOBILE REG APT PTSUNNY   73  68  84 SW13G23   29.77F
6HR MIN TEMP:  70; 6HR MAX TEMP:  74; 6HR PCP:  1.01;

BROOKLEY FIELD PTSUNNY   76  73  91 VRB6      29.78S
6HR MIN TEMP:  72; 6HR MAX TEMP:  77; 6HR PCP:  0.44;

USA CAMPUS*      N/A     72  70  94 CALM      29.76F
DOG RIVER*       N/A     75  72  88 SW14      30.45S


CITY           SKY/WX    TMP DP  RH WIND       PRES   REMARKS
GULF SHORES    CLOUDY    77  76  95 SW16G24   29.78S

$$

ALZ051>060-231300-
INTERIOR SOUTHWEST AND SOUTH CENTRAL ALABAMA

CITY           SKY/WX    TMP DP  RH WIND       PRES   REMARKS
GREENVILLE     LGT RAIN  68  65  90 CALM      29.82S FOG
6HR MIN TEMP:  68; 6HR MAX TEMP:  70;

EVERGREEN      HVY RAIN  68  66  93 NE3       29.81F VSB 1
6HR MIN TEMP:  68; 6HR MAX TEMP:  71; 6HR PCP:  0.76;

ATMORE*          N/A     70  68  94 CALM      29.81R
ANDALUSIA/OPP  HVY RAIN  72  68  87 VRB6      29.80F FOG
6HR MIN TEMP:  72; 6HR MAX TEMP:  75; 6HR PCP:  0.11;

ANDALUSIA*       N/A     68  66  94 NE3       29.81F
FLORALA APT    LGT RAIN  71  69  93 SE5       29.83S
6HR MIN TEMP:  70; 6HR MAX TEMP:  72; 6HR PCP:  0.04;

FLORALA*         N/A     72  70  94 CALM      30.46S

$$

FLZ001>006-231300-
WESTERN FLORIDA PANHANDLE

CITY           SKY/WX    TMP DP  RH WIND       PRES   REMARKS
PENSACOLA      LGT RAIN  78  73  84 S17G24    29.77S
6HR MIN TEMP:  75; 6HR MAX TEMP:  78; 6HR PCP:  0.12;

NAS PENSACOLA  CLOUDY    78  74  87 SW16G26   29.78S
6HR MIN TEMP:  74; 6HR MAX TEMP:  78; 6HR PCP:  0.08;

MILTON         LGT RAIN  73  73 100 S25G32    29.77F FOG
6HR MIN TEMP:  71; 6HR MAX TEMP:  72; 6HR PCP:  0.12;

WHTNG S FIELD  RAIN      76  74  93 S10       29.76F FOG
6HR MIN TEMP:  74; 6HR MAX TEMP:  76; 6HR PCP:  0.30;



CITY           SKY/WX    TMP DP  RH WIND       PRES   REMARKS
JAY*             N/A     70  70 100 E6        29.77F
DUKE FIELD     LGT RAIN  73  72  94 CALM      29.79F
CRESTVIEW      LGT RAIN  72  70  93 CALM      29.81F FOG
6HR MIN TEMP:  71; 6HR MAX TEMP:  73; 6HR PCP:  0.09;

VALPARAISO     PTSUNNY   77  73  87 S14G22    29.79F
6HR MIN TEMP:  74; 6HR MAX TEMP:  77; 6HR PCP:  0.04;

DESTIN         CLOUDY    81  80  97 S8G22     29.80F
6HR MIN TEMP:  78; 6HR MAX TEMP:  81; 6HR PCP:  0.03;


$$

MSZ076-079-231300-
INTERIOR SOUTHEAST MISSISSIPPI

CITY           SKY/WX    TMP DP  RH WIND       PRES   REMARKS
LEAKESVILLE*   NOT AVBL
AGRICOLA*      NOT AVBL

$$

MARINE OBSERVATIONS

STATION/POSITION TIME  TEMP    WIND        PRES    WAVE
                       AIR SEA DIR/SP/G            HT/PER
                 (UTC) (F)     (DEG/KT/KT) (MB)    (FT/S)
PASCAGOULA       1142   77     210/ 13/ 24 1007.7F
PETIT BOIS ISLND 1148   77     210/ 25/ 32 1008.4F
GRAND BAY        1030   78     220/ 20     1009.0S
KATRINA CUT      1100   79     220/ 28     1007.8
CEDAR POINT      1130   77     230/ 27     1007.8F
E DAUPHIN ISLAND 1100   78     200/ 16/ 22 1008.0R
MIDDLE BAY LIGHT 1100   78     200/ 26     1008.1
USCG MOBILE BAY  1148   75 79  210/  7/ 13 1008.5R
STATE DOCKS      1148   75 77              1007.7R
MEAHER PARK      1130   78     200/ 18     1008.1R
FORT MORGAN      1148   78     220/ 29/ 32   N/A
12 S ORANGE BCH  1050   78 79  190/ 19/ 25 1007.8F   3/ 4
PENSACOLA BAY    1148   78 80              1008.2F
64 S DAUPHIN ISL 1150   78 78  200/ 23/ 31 1008.1F   5/ 5
67 S FORT MORGAN 1130   77     210/ 29     1009.5F

$$

SELECTED LOCATIONS ACROSS THE REGION

CITY           SKY/WX    TMP DP  RH WIND       PRES   REMARKS
NEW ORLEANS    MOSUNNY   73  71  93 SW8       29.75F
GULFPORT       CLOUDY    77  71  82 SW15G25   29.75S
PASCAGOULA AP  CLOUDY    75  68  78 SW9G18    29.76F
PASCAGOULA*    NOT AVBL
HATTIESBURG    CLOUDY    67  66  97 E8        29.76F
LAUREL         NOT AVBL
MERIDIAN       CLOUDY    68  66  93 E5        29.78S
JACKSON        LGT RAIN  66  65  96 N8        29.79S FOG
MONTGOMERY     RAIN      69  65  86 SE5       29.83F FOG
TROY           HVY RAIN  68  68 100 NE5       29.84F FOG
ASHFORD*         N/A     68  66  94 NE3       29.81F
DOTHAN         CLOUDY    72  72 100 E3        29.87F
PANAMA CITY    CLOUDY    76  73  91 S6        29.82S

$$




USA.gov is the U.S. government's official web portal to all federal, state and local government web resources and services.